AVA243 TNCA-SKBO

Flight info

Callsign AVA243
Flight time 1h 27m
Altitude 38000
Route DATOR2F DATOR UL220 MAGTA UL342 ENPUT UW1 CUC UW26 EJA UQ119 ILSEV ILSEV5E
Aircraft A20N/M-SDE2E3FGHIJ1RWXY/LB1

Departure

Time 2026-05-08 16:05
Airport Queen Beatrix International Airport (TNCA)

Arrival

Time 2026-05-08 17:33
Airport El Dorado International Airport (SKBO)
Time Latitude Longitude Altitude Speed Heading
2026-05-08 15:01 12.50279 -70.00759 49 ft 0 kts 14°
2026-05-08 15:48 12.50262 -70.00764 49 ft 3 kts 24°
2026-05-08 15:49 12.50241 -70.00775 48 ft 3 kts 27°
2026-05-08 15:49 12.50222 -70.00783 50 ft 3 kts 11°
2026-05-08 15:49 12.50203 -70.00782 50 ft 3 kts 315°
2026-05-08 15:49 12.50191 -70.00762 50 ft 3 kts 287°
2026-05-08 15:50 12.50185 -70.00740 47 ft 3 kts 283°
2026-05-08 15:50 12.50180 -70.00717 50 ft 3 kts 282°
2026-05-08 15:50 12.50175 -70.00696 50 ft 1 kts 285°
2026-05-08 15:55 12.50180 -70.00715 50 ft 5 kts 284°
2026-05-08 15:55 12.50192 -70.00761 49 ft 9 kts 284°
2026-05-08 15:56 12.50208 -70.00833 50 ft 12 kts 283°
2026-05-08 15:56 12.50230 -70.00925 50 ft 14 kts 283°
2026-05-08 15:56 12.50254 -70.01025 50 ft 15 kts 284°
2026-05-08 15:56 12.50242 -70.01115 50 ft 11 kts 235°
2026-05-08 15:57 12.50240 -70.01191 50 ft 12 kts 284°
2026-05-08 15:57 12.50262 -70.01287 47 ft 15 kts 283°
2026-05-08 15:57 12.50289 -70.01399 47 ft 18 kts 284°
2026-05-08 15:57 12.50318 -70.01522 49 ft 18 kts 283°
2026-05-08 15:58 12.50347 -70.01647 49 ft 18 kts 284°
2026-05-08 15:58 12.50377 -70.01774 49 ft 18 kts 284°
2026-05-08 15:58 12.50408 -70.01903 48 ft 18 kts 283°
2026-05-08 15:58 12.50435 -70.02019 48 ft 15 kts 283°
2026-05-08 15:59 12.50459 -70.02118 48 ft 13 kts 284°
2026-05-08 15:59 12.50478 -70.02201 48 ft 11 kts 283°
2026-05-08 15:59 12.50494 -70.02268 47 ft 9 kts 284°
2026-05-08 15:59 12.50508 -70.02326 47 ft 9 kts 284°
2026-05-08 16:00 12.50528 -70.02404 47 ft 13 kts 284°
2026-05-08 16:00 12.50551 -70.02507 47 ft 15 kts 283°
2026-05-08 16:00 12.50575 -70.02607 44 ft 12 kts 283°
2026-05-08 16:00 12.50562 -70.02675 46 ft 10 kts 243°
2026-05-08 16:01 12.50527 -70.02740 41 ft 5 kts 242°
2026-05-08 16:01 12.50527 -70.02742 44 ft 0 kts 242°
2026-05-08 16:03 12.50525 -70.02745 43 ft 1 kts 242°
2026-05-08 16:03 12.50516 -70.02762 42 ft 6 kts 242°
2026-05-08 16:04 12.50468 -70.02806 38 ft 13 kts 190°
2026-05-08 16:04 12.50429 -70.02749 38 ft 11 kts 102°
2026-05-08 16:04 12.50425 -70.02732 38 ft 0 kts 103°
2026-05-08 16:05 12.50376 -70.02530 38 ft 61 kts 103°
2026-05-08 16:05 12.50229 -70.01905 45 ft 117 kts 103°
2026-05-08 16:05 12.50014 -70.00995 245 ft 137 kts 104°
2026-05-08 16:05 12.49793 -70.00085 886 ft 127 kts 104°
2026-05-08 16:06 12.49566 -69.99175 1466 ft 138 kts 102°
2026-05-08 16:06 12.49325 -69.98240 2378 ft 132 kts 105°
2026-05-08 16:06 12.49116 -69.97370 3310 ft 127 kts 103°
2026-05-08 16:06 12.48890 -69.96412 3778 ft 153 kts 102°
2026-05-08 16:07 12.48596 -69.95260 4090 ft 182 kts 109°
2026-05-08 16:07 12.47843 -69.94116 4338 ft 213 kts 138°
2026-05-08 16:07 12.46329 -69.93592 4612 ft 253 kts 177°
2026-05-08 16:07 12.44598 -69.94212 5218 ft 278 kts 212°
2026-05-08 16:08 12.43414 -69.95813 5920 ft 294 kts 249°
2026-05-08 16:08 12.43213 -69.97871 6857 ft 289 kts 275°
2026-05-08 16:08 12.43428 -69.99918 7683 ft 291 kts 276°
2026-05-08 16:08 12.43572 -70.02015 8304 ft 299 kts 272°
2026-05-08 16:09 12.43598 -70.04148 8951 ft 305 kts 270°
2026-05-08 16:09 12.43552 -70.06331 9686 ft 310 kts 269°
2026-05-08 16:09 12.43461 -70.08568 10240 ft 319 kts 268°
2026-05-08 16:09 12.43336 -70.10906 10556 ft 337 kts 268°
2026-05-08 16:10 12.43186 -70.13380 10825 ft 356 kts 268°
2026-05-08 16:10 12.42931 -70.15950 11171 ft 369 kts 263°
2026-05-08 16:10 12.42506 -70.18548 11564 ft 379 kts 261°
2026-05-08 16:10 12.42026 -70.21240 11987 ft 389 kts 261°
2026-05-08 16:11 12.41535 -70.23967 12615 ft 390 kts 261°
2026-05-08 16:11 12.41003 -70.26687 13322 ft 391 kts 258°
2026-05-08 16:11 12.40287 -70.29387 13893 ft 396 kts 255°
2026-05-08 16:11 12.39446 -70.32099 14353 ft 403 kts 252°
2026-05-08 16:12 12.38539 -70.34810 14973 ft 402 kts 251°
2026-05-08 16:12 12.37622 -70.37487 15559 ft 406 kts 251°
2026-05-08 16:12 12.36684 -70.40228 16045 ft 411 kts 251°
2026-05-08 16:12 12.35746 -70.42999 16627 ft 413 kts 251°
2026-05-08 16:13 12.34811 -70.45788 17263 ft 414 kts 251°
2026-05-08 16:13 12.33876 -70.48597 17718 ft 420 kts 251°
2026-05-08 16:13 12.32933 -70.51449 18224 ft 423 kts 251°
2026-05-08 16:13 12.31992 -70.54301 18730 ft 423 kts 252°
2026-05-08 16:14 12.31043 -70.57185 19051 ft 429 kts 252°
2026-05-08 16:14 12.30084 -70.60095 19434 ft 432 kts 252°
2026-05-08 16:14 12.29123 -70.63006 19893 ft 433 kts 252°
2026-05-08 16:14 12.28165 -70.65903 20225 ft 438 kts 252°
2026-05-08 16:15 12.27187 -70.68864 20602 ft 441 kts 252°
2026-05-08 16:15 12.26201 -70.71850 20998 ft 444 kts 252°
2026-05-08 16:15 12.25174 -70.74837 21389 ft 447 kts 249°
2026-05-08 16:15 12.23832 -70.77729 21759 ft 452 kts 241°
2026-05-08 16:16 12.22057 -70.80409 22138 ft 457 kts 231°
2026-05-08 16:16 12.19839 -70.82744 22508 ft 460 kts 220°
2026-05-08 16:16 12.17213 -70.84631 22872 ft 464 kts 208°
2026-05-08 16:16 12.14347 -70.86091 23260 ft 466 kts 203°
2026-05-08 16:17 12.11350 -70.87397 23595 ft 470 kts 200°
2026-05-08 16:17 12.09293 -70.88227 23813 ft 471 kts 200°
2026-05-08 16:17 12.05233 -70.89807 24382 ft 471 kts 199°
2026-05-08 16:17 12.02164 -70.90998 24760 ft 473 kts 200°
2026-05-08 16:18 11.99082 -70.92207 25132 ft 475 kts 200°
2026-05-08 16:18 11.95993 -70.93434 25500 ft 478 kts 200°
2026-05-08 16:18 11.92889 -70.94680 25870 ft 480 kts 201°
2026-05-08 16:18 11.89773 -70.95939 26254 ft 482 kts 201°
2026-05-08 16:19 11.86637 -70.97213 26626 ft 484 kts 201°
2026-05-08 16:19 11.83497 -70.98490 26984 ft 487 kts 201°
2026-05-08 16:19 11.80368 -70.99759 27345 ft 489 kts 201°
2026-05-08 16:19 11.77194 -71.01044 27678 ft 491 kts 201°
2026-05-08 16:20 11.73998 -71.02337 28022 ft 493 kts 201°
2026-05-08 16:20 11.70827 -71.03619 28333 ft 496 kts 201°
2026-05-08 16:20 11.67615 -71.04918 28645 ft 498 kts 201°
2026-05-08 16:20 11.64384 -71.06225 28970 ft 500 kts 201°
2026-05-08 16:21 11.61122 -71.07540 29317 ft 502 kts 202°
2026-05-08 16:21 11.57873 -71.08854 29779 ft 500 kts 202°
2026-05-08 16:21 11.54640 -71.10162 30212 ft 499 kts 202°
2026-05-08 16:21 11.51456 -71.11449 30628 ft 497 kts 202°
2026-05-08 16:22 11.48238 -71.12750 31038 ft 495 kts 202°
2026-05-08 16:22 11.45033 -71.14045 31476 ft 493 kts 202°
2026-05-08 16:22 11.41830 -71.15338 31833 ft 492 kts 202°
2026-05-08 16:22 11.38696 -71.16606 32288 ft 489 kts 202°
2026-05-08 16:23 11.35540 -71.17880 32786 ft 485 kts 202°
2026-05-08 16:23 11.32405 -71.19144 33212 ft 483 kts 202°
2026-05-08 16:23 11.29282 -71.20404 33588 ft 481 kts 202°
2026-05-08 16:23 11.26203 -71.21645 33938 ft 480 kts 202°
2026-05-08 16:24 11.23094 -71.22898 34296 ft 478 kts 202°
2026-05-08 16:24 11.19991 -71.24148 34568 ft 477 kts 203°
2026-05-08 16:24 11.16941 -71.25378 34892 ft 476 kts 203°
2026-05-08 16:24 11.13867 -71.26617 35189 ft 475 kts 203°
2026-05-08 16:25 11.10786 -71.27857 35495 ft 473 kts 203°
2026-05-08 16:25 11.07724 -71.29093 35794 ft 472 kts 203°
2026-05-08 16:25 11.04680 -71.30320 36246 ft 467 kts 203°
2026-05-08 16:25 11.01702 -71.31519 36676 ft 463 kts 203°
2026-05-08 16:26 10.98715 -71.32724 36935 ft 462 kts 203°
2026-05-08 16:26 10.95719 -71.33931 37146 ft 462 kts 203°
2026-05-08 16:26 10.92718 -71.35136 37362 ft 462 kts 203°
2026-05-08 16:26 10.89724 -71.36339 37618 ft 462 kts 203°
2026-05-08 16:27 10.86770 -71.37526 37848 ft 462 kts 204°
2026-05-08 16:27 10.83773 -71.38731 37896 ft 462 kts 204°
2026-05-08 16:27 10.77799 -71.41129 37898 ft 461 kts 204°
2026-05-08 16:28 10.71817 -71.43534 37898 ft 461 kts 204°
2026-05-08 16:28 10.65889 -71.45923 37903 ft 460 kts 204°
2026-05-08 16:29 10.59931 -71.48325 37900 ft 461 kts 204°
2026-05-08 16:29 10.53971 -71.50724 37900 ft 460 kts 203°
2026-05-08 16:30 10.48044 -71.53105 37899 ft 460 kts 204°
2026-05-08 16:30 10.42073 -71.55498 37905 ft 460 kts 203°
2026-05-08 16:31 10.36108 -71.57895 37902 ft 460 kts 203°
2026-05-08 16:31 10.30189 -71.60274 37899 ft 460 kts 203°
2026-05-08 16:32 10.24221 -71.62670 37899 ft 460 kts 203°
2026-05-08 16:32 10.18307 -71.65043 37901 ft 460 kts 203°
2026-05-08 16:33 10.12346 -71.67437 37899 ft 460 kts 203°
2026-05-08 16:33 10.06423 -71.69814 37897 ft 460 kts 203°
2026-05-08 16:34 10.00463 -71.72205 37903 ft 461 kts 203°
2026-05-08 16:34 9.94477 -71.74602 37901 ft 461 kts 203°
2026-05-08 16:35 9.88518 -71.76985 37900 ft 461 kts 203°
2026-05-08 16:35 9.82574 -71.79358 37900 ft 461 kts 203°
2026-05-08 16:36 9.76569 -71.81759 37899 ft 462 kts 203°
2026-05-08 16:36 9.70607 -71.84107 37902 ft 462 kts 202°
2026-05-08 16:37 9.64532 -71.86300 37902 ft 463 kts 200°
2026-05-08 16:37 9.58431 -71.88440 37904 ft 463 kts 200°
2026-05-08 16:38 9.52372 -71.90580 37899 ft 464 kts 201°
2026-05-08 16:38 9.46280 -71.92749 37905 ft 464 kts 200°
2026-05-08 16:39 9.40174 -71.94922 37899 ft 464 kts 200°
2026-05-08 16:39 9.34108 -71.97085 37896 ft 465 kts 201°
2026-05-08 16:40 9.27995 -71.99260 37904 ft 465 kts 201°
2026-05-08 16:40 9.21877 -72.01439 37894 ft 465 kts 201°
2026-05-08 16:41 9.15812 -72.03599 37894 ft 465 kts 201°
2026-05-08 16:42 9.06638 -72.06861 37898 ft 465 kts 201°
2026-05-08 16:42 9.00525 -72.09034 37888 ft 465 kts 201°
2026-05-08 16:43 8.94443 -72.11195 37899 ft 465 kts 201°
2026-05-08 16:43 8.88365 -72.13354 37885 ft 465 kts 201°
2026-05-08 16:44 8.83288 -72.15158 37890 ft 465 kts 201°
2026-05-08 16:44 8.77180 -72.17326 37890 ft 464 kts 201°
2026-05-08 16:45 8.71060 -72.19495 37887 ft 465 kts 201°
2026-05-08 16:45 8.64976 -72.21655 37908 ft 465 kts 201°
2026-05-08 16:46 8.58860 -72.23826 37909 ft 464 kts 201°
2026-05-08 16:46 8.52806 -72.25976 37900 ft 463 kts 201°
2026-05-08 16:47 8.46707 -72.28137 37914 ft 463 kts 201°
2026-05-08 16:47 8.40650 -72.30280 37910 ft 463 kts 201°
2026-05-08 16:48 8.34557 -72.32436 37929 ft 463 kts 201°
2026-05-08 16:48 8.28463 -72.34593 37925 ft 463 kts 201°
2026-05-08 16:49 8.22382 -72.36752 37948 ft 462 kts 202°
2026-05-08 16:49 8.16565 -72.39449 37950 ft 461 kts 208°
2026-05-08 16:50 8.10859 -72.42339 37964 ft 461 kts 208°
2026-05-08 16:50 8.05135 -72.45294 37983 ft 461 kts 209°
2026-05-08 16:51 7.99458 -72.48223 37991 ft 461 kts 208°
2026-05-08 16:51 7.94022 -72.51619 37989 ft 456 kts 222°
2026-05-08 16:51 7.91783 -72.53858 37992 ft 451 kts 233°
2026-05-08 16:52 7.89851 -72.56303 37994 ft 451 kts 236°
2026-05-08 16:52 7.86189 -72.61428 37990 ft 448 kts 236°
2026-05-08 16:53 7.80874 -72.69177 38002 ft 446 kts 236°
2026-05-08 16:53 7.77331 -72.74286 38004 ft 446 kts 236°
2026-05-08 16:54 7.73756 -72.79411 38009 ft 446 kts 236°
2026-05-08 16:54 7.70184 -72.84522 38015 ft 446 kts 236°
2026-05-08 16:55 7.66616 -72.89621 38037 ft 446 kts 236°
2026-05-08 16:55 7.63040 -72.94738 38038 ft 446 kts 236°
2026-05-08 16:56 7.59462 -72.99853 38022 ft 444 kts 235°
2026-05-08 16:56 7.55927 -73.04903 38018 ft 443 kts 236°
2026-05-08 16:57 7.52379 -73.09972 37979 ft 442 kts 236°
2026-05-08 16:57 7.48825 -73.15049 37976 ft 443 kts 236°
2026-05-08 16:58 7.45289 -73.20100 37987 ft 443 kts 236°
2026-05-08 16:58 7.41734 -73.25172 37958 ft 442 kts 236°
2026-05-08 16:59 7.38182 -73.30238 37970 ft 442 kts 235°
2026-05-08 16:59 7.34634 -73.35301 37962 ft 442 kts 235°
2026-05-08 17:00 7.31087 -73.40359 37945 ft 442 kts 235°
2026-05-08 17:00 7.27544 -73.45416 37950 ft 442 kts 235°
2026-05-08 17:01 7.24012 -73.50454 37917 ft 444 kts 235°
2026-05-08 17:01 7.20430 -73.55554 37891 ft 445 kts 235°
2026-05-08 17:02 7.16849 -73.60647 37895 ft 445 kts 235°
2026-05-08 17:02 7.13270 -73.65743 37888 ft 445 kts 235°
2026-05-08 17:03 7.09704 -73.70812 37891 ft 447 kts 235°
2026-05-08 17:03 7.06115 -73.75924 37886 ft 446 kts 234°
2026-05-08 17:04 7.04079 -73.78294 37892 ft 446 kts 222°
2026-05-08 17:04 7.01597 -73.80108 37909 ft 447 kts 208°
2026-05-08 17:04 6.98705 -73.81244 37925 ft 447 kts 195°
2026-05-08 17:04 6.95659 -73.81928 37910 ft 449 kts 192°
2026-05-08 17:05 6.89473 -73.83087 37909 ft 451 kts 191°
2026-05-08 17:05 6.83313 -73.84227 37902 ft 452 kts 191°
2026-05-08 17:06 6.77121 -73.85379 37899 ft 451 kts 191°
2026-05-08 17:06 6.70994 -73.86519 37903 ft 446 kts 192°
2026-05-08 17:07 6.64874 -73.87669 37888 ft 450 kts 191°
2026-05-08 17:07 6.58736 -73.88818 37916 ft 445 kts 192°
2026-05-08 17:08 6.52621 -73.89963 37900 ft 452 kts 191°
2026-05-08 17:08 6.46387 -73.91137 37902 ft 457 kts 191°
2026-05-08 17:09 6.40213 -73.92274 37924 ft 453 kts 192°
2026-05-08 17:09 6.34057 -73.93423 37563 ft 448 kts 191°
2026-05-08 17:10 6.30979 -73.93999 37303 ft 451 kts 191°
2026-05-08 17:10 6.27884 -73.94575 37082 ft 455 kts 191°
2026-05-08 17:10 6.24750 -73.95143 36835 ft 457 kts 191°
2026-05-08 17:10 6.21603 -73.95736 36599 ft 459 kts 191°
2026-05-08 17:11 6.18477 -73.96332 36345 ft 457 kts 191°
2026-05-08 17:11 6.15378 -73.96916 36105 ft 459 kts 191°
2026-05-08 17:11 6.12234 -73.97493 35890 ft 459 kts 190°
2026-05-08 17:11 6.09090 -73.98082 35657 ft 459 kts 190°
2026-05-08 17:12 6.05940 -73.98685 35421 ft 461 kts 191°
2026-05-08 17:12 6.02784 -73.99285 35187 ft 460 kts 191°
2026-05-08 17:12 5.99620 -73.99881 34618 ft 464 kts 191°
2026-05-08 17:12 5.96450 -74.00478 33706 ft 473 kts 191°
2026-05-08 17:13 5.93184 -74.01096 32765 ft 479 kts 191°
2026-05-08 17:13 5.89887 -74.01721 31869 ft 484 kts 191°
2026-05-08 17:13 5.86553 -74.02353 30956 ft 489 kts 191°
2026-05-08 17:13 5.83220 -74.02985 30124 ft 492 kts 192°
2026-05-08 17:14 5.79875 -74.03619 29642 ft 482 kts 192°
2026-05-08 17:14 5.76608 -74.04239 28651 ft 475 kts 191°
2026-05-08 17:14 5.73347 -74.04857 27254 ft 477 kts 191°
2026-05-08 17:14 5.70106 -74.05472 26057 ft 478 kts 191°
2026-05-08 17:15 5.66861 -74.06086 25299 ft 469 kts 191°
2026-05-08 17:15 5.63652 -74.06696 24540 ft 469 kts 191°
2026-05-08 17:15 5.60444 -74.07305 23778 ft 468 kts 190°
2026-05-08 17:15 5.57262 -74.07909 23348 ft 456 kts 190°
2026-05-08 17:16 5.54217 -74.08488 23243 ft 431 kts 190°
2026-05-08 17:16 5.51387 -74.09024 23125 ft 408 kts 190°
2026-05-08 17:16 5.48667 -74.09540 22984 ft 388 kts 190°
2026-05-08 17:16 5.46025 -74.10040 22413 ft 383 kts 190°
2026-05-08 17:17 5.43424 -74.10660 21830 ft 384 kts 200°
2026-05-08 17:17 5.41087 -74.11927 21456 ft 383 kts 218°
2026-05-08 17:17 5.39166 -74.13780 21077 ft 383 kts 227°
2026-05-08 17:17 5.37393 -74.15773 20698 ft 381 kts 229°
2026-05-08 17:18 5.35672 -74.17752 20325 ft 380 kts 229°
2026-05-08 17:18 5.33934 -74.19741 19953 ft 376 kts 229°
2026-05-08 17:18 5.32208 -74.21709 19549 ft 374 kts 228°
2026-05-08 17:18 5.30508 -74.23639 19312 ft 365 kts 228°
2026-05-08 17:19 5.28838 -74.25533 19007 ft 357 kts 228°
2026-05-08 17:19 5.27201 -74.27390 18676 ft 353 kts 228°
2026-05-08 17:19 5.25572 -74.29235 18208 ft 353 kts 229°
2026-05-08 17:19 5.24168 -74.31250 17761 ft 349 kts 245°
2026-05-08 17:20 5.23561 -74.33553 17645 ft 337 kts 266°
2026-05-08 17:20 5.23598 -74.35883 17609 ft 334 kts 274°
2026-05-08 17:20 5.23778 -74.38219 17616 ft 337 kts 275°
2026-05-08 17:20 5.23974 -74.40537 17608 ft 337 kts 274°
2026-05-08 17:21 5.24171 -74.42886 17614 ft 338 kts 274°
2026-05-08 17:21 5.24308 -74.45244 17605 ft 338 kts 268°
2026-05-08 17:21 5.23921 -74.47558 17618 ft 337 kts 252°
2026-05-08 17:21 5.23092 -74.49729 17557 ft 326 kts 242°
2026-05-08 17:22 5.21864 -74.51568 17519 ft 309 kts 226°
2026-05-08 17:22 5.20239 -74.52888 17497 ft 294 kts 207°
2026-05-08 17:22 5.18356 -74.53591 17103 ft 291 kts 188°
2026-05-08 17:22 5.16318 -74.53561 16399 ft 298 kts 163°
2026-05-08 17:23 5.14392 -74.52822 15915 ft 301 kts 154°
2026-05-08 17:23 5.12512 -74.51917 15565 ft 298 kts 153°
2026-05-08 17:23 5.10654 -74.50997 15245 ft 295 kts 153°
2026-05-08 17:23 5.08813 -74.50088 14886 ft 294 kts 153°
2026-05-08 17:24 5.06979 -74.49186 14642 ft 289 kts 152°
2026-05-08 17:24 5.05178 -74.48312 14294 ft 288 kts 153°
2026-05-08 17:24 5.03369 -74.47435 13981 ft 287 kts 152°
2026-05-08 17:24 5.01589 -74.46574 13631 ft 287 kts 153°
2026-05-08 17:25 4.99785 -74.45698 13289 ft 285 kts 152°
2026-05-08 17:25 4.98021 -74.44843 12981 ft 280 kts 153°
2026-05-08 17:25 4.96270 -74.43993 12686 ft 278 kts 153°
2026-05-08 17:25 4.94528 -74.43149 12628 ft 277 kts 153°
2026-05-08 17:26 4.92811 -74.42316 12634 ft 277 kts 152°
2026-05-08 17:26 4.91202 -74.41267 12662 ft 275 kts 136°
2026-05-08 17:26 4.89961 -74.39872 12681 ft 258 kts 127°
2026-05-08 17:26 4.88955 -74.38484 12740 ft 235 kts 125°
2026-05-08 17:27 4.88019 -74.37202 12711 ft 221 kts 126°
2026-05-08 17:27 4.87102 -74.35974 12767 ft 219 kts 126°
2026-05-08 17:27 4.86193 -74.34767 12803 ft 217 kts 126°
2026-05-08 17:27 4.85279 -74.33575 12716 ft 213 kts 128°
2026-05-08 17:28 4.84373 -74.32404 12430 ft 215 kts 127°
2026-05-08 17:28 4.83465 -74.31208 12136 ft 217 kts 126°
2026-05-08 17:28 4.82562 -74.30008 11798 ft 213 kts 126°
2026-05-08 17:28 4.81672 -74.28834 11522 ft 208 kts 126°
2026-05-08 17:29 4.80813 -74.27702 11284 ft 199 kts 126°
2026-05-08 17:29 4.79998 -74.26627 11073 ft 187 kts 126°
2026-05-08 17:29 4.79232 -74.25616 10875 ft 175 kts 126°
2026-05-08 17:29 4.78536 -74.24699 10684 ft 161 kts 127°
2026-05-08 17:30 4.77860 -74.23805 10503 ft 162 kts 127°
2026-05-08 17:30 4.77178 -74.22905 10320 ft 162 kts 127°
2026-05-08 17:30 4.76727 -74.22308 10191 ft 161 kts 126°
2026-05-08 17:30 4.76048 -74.21412 9984 ft 161 kts 126°
2026-05-08 17:31 4.75150 -74.20230 9712 ft 160 kts 126°
2026-05-08 17:31 4.74475 -74.19338 9560 ft 161 kts 126°
2026-05-08 17:31 4.74016 -74.18733 9422 ft 162 kts 127°
2026-05-08 17:31 4.73348 -74.17850 9205 ft 156 kts 127°
2026-05-08 17:32 4.72687 -74.16991 8928 ft 158 kts 127°
2026-05-08 17:32 4.72023 -74.16109 8658 ft 159 kts 125°
2026-05-08 17:32 4.71362 -74.15236 8422 ft 155 kts 124°
2026-05-08 17:32 4.70743 -74.14417 8371 ft 134 kts 128°
2026-05-08 17:33 4.70247 -74.13762 8367 ft 103 kts 127°
2026-05-08 17:33 4.69946 -74.13365 8370 ft 37 kts 133°
2026-05-08 17:33 4.69817 -74.13311 8370 ft 16 kts 170°
2026-05-08 17:33 4.69743 -74.13300 8369 ft 5 kts 172°
2026-05-08 17:34 4.69721 -74.13297 8369 ft 1 kts 172°
2026-05-08 17:34 4.69707 -74.13295 8369 ft 1 kts 173°
2026-05-08 17:34 4.69682 -74.13292 8369 ft 8 kts 171°
2026-05-08 17:34 4.69621 -74.13282 8369 ft 7 kts 171°
2026-05-08 17:35 4.69581 -74.13292 8369 ft 6 kts 233°
2026-05-08 17:35 4.69584 -74.13328 8369 ft 7 kts 297°
2026-05-08 17:35 4.69634 -74.13396 8369 ft 16 kts 308°
2026-05-08 17:35 4.69697 -74.13478 8369 ft 14 kts 307°
2026-05-08 17:36 4.69752 -74.13552 8369 ft 12 kts 306°
2026-05-08 17:36 4.69778 -74.13621 8369 ft 9 kts 245°
2026-05-08 17:36 4.69754 -74.13638 8369 ft 0 kts 196°
2026-05-08 17:36 4.69749 -74.13639 8369 ft 2 kts 193°
2026-05-08 17:37 4.69729 -74.13642 8369 ft 2 kts 189°
2026-05-08 17:37 4.69700 -74.13669 8369 ft 10 kts 241°
2026-05-08 17:37 4.69678 -74.13710 8369 ft 5 kts 242°
2026-05-08 17:37 4.69671 -74.13723 8369 ft 1 kts 242°
2026-05-08 17:38 4.69670 -74.13726 8369 ft 0 kts 242°